Location: Belfast
(54.5830°N, 5.9330°W)
Time: 01:48:39
(UTC+01:00)

ISS - Pass Details

Date: 29 March 2017
Orbit: 399 x 409 km, 51.6° (Epoch: 30 March)

Event Time Altitude Azimuth Distance (km) Brightness Sun altitude
Rises 20:39:23 0° 200° (SSW) 2,304 0.1 -7.1°
Reaches altitude 10° 20:42:24 10° 169° (S) 1,453 -1.3 -7.5°
Maximum altitude 20:43:49 12° 143° (SE) 1,324 -1.7 -7.7°
Enters shadow 20:45:04 10° 120° (ESE) 1,433 -1.7 -7.9°
